Time,TemperatureF,DewpointF,PressureIn,WindDirection,WindDirectionDegrees,WindSpeedMPH,WindSpeedGustMPH,Humidity,HourlyPrecipIn,Conditions,Clouds,dailyrainin,SoftwareType,DateUTC
2013-02-16 00:02:00,36.0,35.0,-100.00,WNW,300,0.0,2.0,96,-99.99,,,-99.99,,2013-02-16 05:02:00,
2013-02-16 00:12:00,36.0,36.0,-100.00,SSW,210,0.0,2.0,97,-99.99,,,-99.99,,2013-02-16 05:12:00,
2013-02-16 00:22:00,36.0,36.0,-100.00,SSW,210,0.0,2.0,97,-99.99,,,-99.99,,2013-02-16 05:22:00,
2013-02-16 00:32:00,36.0,36.0,-100.00,SW,220,0.0,2.0,97,-99.99,,,-99.99,,2013-02-16 05:32:00,
2013-02-16 00:42:00,36.0,36.0,-100.00,SW,230,0.0,0.0,97,-99.99,,,-99.99,,2013-02-16 05:42:00,
2013-02-16 00:52:00,36.0,36.0,-100.00,SW,230,0.0,0.0,97,-99.99,,,-99.99,,2013-02-16 05:52:00,
2013-02-16 01:02:00,36.0,36.0,-100.00,North,10,0.0,1.0,97,-99.99,,,-99.99,,2013-02-16 06:02:00,
2013-02-16 01:11:00,36.0,35.0,-100.00,NNE,15,1.0,4.0,97,-99.99,,,-99.99,,2013-02-16 06:11:00,
2013-02-16 01:21:00,36.0,35.0,-100.00,NNE,15,1.0,4.0,97,-99.99,,,-99.99,,2013-02-16 06:21:00,
2013-02-16 01:32:00,36.0,35.0,-100.00,East,100,0.0,2.0,97,-99.99,,,-99.99,,2013-02-16 06:32:00,
2013-02-16 01:42:00,36.0,35.0,-100.00,ESE,120,0.0,1.0,97,-99.99,,,-99.99,,2013-02-16 06:42:00,
2013-02-16 01:52:00,36.0,35.0,-100.00,ESE,120,0.0,1.0,97,-99.99,,,-99.99,,2013-02-16 06:52:00,
2013-02-16 02:02:00,36.0,35.0,-100.00,NW,310,0.0,0.0,97,-99.99,,,-99.99,,2013-02-16 07:02:00,
2013-02-16 02:11:00,35.0,35.0,-100.00,South,190,1.0,2.0,97,-99.99,,,-99.99,,2013-02-16 07:11:00,
2013-02-16 02:21:00,35.0,35.0,-100.00,South,190,1.0,2.0,97,-99.99,,,-99.99,,2013-02-16 07:21:00,
2013-02-16 02:32:00,36.0,35.0,-100.00,South,190,0.0,2.0,97,-99.99,,,-99.99,,2013-02-16 07:32:00,
2013-02-16 02:42:00,36.0,35.0,-100.00,SSE,150,1.0,2.0,97,-99.99,,,-99.99,,2013-02-16 07:42:00,
2013-02-16 02:52:00,36.0,35.0,-100.00,SSE,150,1.0,2.0,97,-99.99,,,-99.99,,2013-02-16 07:52:00,
2013-02-16 03:01:00,36.0,35.0,-100.00,South,175,2.0,3.0,98,-99.99,,,-99.99,,2013-02-16 08:01:00,
2013-02-16 03:11:00,36.0,35.0,-100.00,SE,135,1.0,1.0,97,-99.99,,,-99.99,,2013-02-16 08:11:00,
2013-02-16 03:21:00,36.0,35.0,-100.00,SE,135,1.0,1.0,97,-99.99,,,-99.99,,2013-02-16 08:21:00,
2013-02-16 03:32:00,36.0,35.0,-100.00,North,0,0.0,1.0,98,-99.99,,,-99.99,,2013-02-16 08:32:00,
2013-02-16 03:42:00,36.0,36.0,-100.00,North,0,0.0,1.0,98,-99.99,,,-99.99,,2013-02-16 08:42:00,
2013-02-16 03:52:00,36.0,35.0,-100.00,SW,235,0.0,1.0,98,-99.99,,,-99.99,,2013-02-16 08:52:00,
2013-02-16 04:02:00,36.0,35.0,-100.00,SW,235,0.0,1.0,98,-99.99,,,-99.99,,2013-02-16 09:02:00,
2013-02-16 04:11:00,36.0,35.0,-100.00,West,270,0.0,1.0,98,-99.99,,,-99.99,,2013-02-16 09:11:00,
2013-02-16 04:21:00,36.0,35.0,-100.00,West,270,0.0,1.0,98,-99.99,,,-99.99,,2013-02-16 09:21:00,
2013-02-16 04:32:00,36.0,35.0,-100.00,SW,225,1.0,2.0,98,-99.99,,,-99.99,,2013-02-16 09:32:00,
2013-02-16 04:42:00,36.0,35.0,-100.00,SSW,210,1.0,3.0,98,-99.99,,,-99.99,,2013-02-16 09:42:00,
2013-02-16 04:51:00,36.0,35.0,-100.00,SSW,210,1.0,3.0,98,-99.99,,,-99.99,,2013-02-16 09:51:00,
2013-02-16 05:01:00,36.0,35.0,-100.00,SSW,210,1.0,2.0,98,-99.99,,,-99.99,,2013-02-16 10:01:00,
2013-02-16 05:11:00,36.0,35.0,-100.00,SSW,210,1.0,4.0,98,-99.99,,,-99.99,,2013-02-16 10:11:00,
2013-02-16 05:21:00,36.0,35.0,-100.00,SSW,210,1.0,4.0,98,-99.99,,,-99.99,,2013-02-16 10:21:00,
2013-02-16 05:32:00,36.0,35.0,-100.00,SSW,210,2.0,6.0,98,-99.99,,,-99.99,,2013-02-16 10:32:00,
2013-02-16 05:42:00,36.0,35.0,-100.00,SSE,160,0.0,2.0,98,-99.99,,,-99.99,,2013-02-16 10:42:00,
2013-02-16 05:51:00,36.0,35.0,-100.00,SSE,160,0.0,2.0,98,-99.99,,,-99.99,,2013-02-16 10:51:00,
2013-02-16 06:02:00,36.0,35.0,-100.00,WSW,255,0.0,0.0,98,-99.99,,,-99.99,,2013-02-16 11:02:00,
2013-02-16 06:11:00,36.0,35.0,-100.00,North,0,0.0,0.0,98,-99.99,,,-99.99,,2013-02-16 11:11:00,
2013-02-16 06:22:00,36.0,35.0,-100.00,North,0,0.0,0.0,98,-99.99,,,-99.99,,2013-02-16 11:22:00,
2013-02-16 06:32:00,36.0,35.0,-100.00,West,260,0.0,1.0,98,-99.99,,,-99.99,,2013-02-16 11:32:00,
2013-02-16 06:42:00,36.0,35.0,-100.00,SW,225,0.0,1.0,98,-99.99,,,-99.99,,2013-02-16 11:42:00,
2013-02-16 06:52:00,36.0,35.0,-100.00,SW,225,1.0,2.0,99,-99.99,,,-99.99,,2013-02-16 11:52:00,
2013-02-16 07:02:00,36.0,35.0,-100.00,SW,225,1.0,2.0,99,-99.99,,,-99.99,,2013-02-16 12:02:00,
2013-02-16 07:12:00,36.0,35.0,-100.00,SSW,205,1.0,3.0,99,-99.99,,,-99.99,,2013-02-16 12:12:00,
2013-02-16 07:22:00,36.0,35.0,-100.00,SSW,205,1.0,3.0,99,-99.99,,,-99.99,,2013-02-16 12:22:00,
2013-02-16 07:32:00,36.0,35.0,-100.00,SW,220,2.0,5.0,99,-99.99,,,-99.99,,2013-02-16 12:32:00,
2013-02-16 07:42:00,36.0,35.0,-100.00,SW,225,1.0,7.0,99,-99.99,,,-99.99,,2013-02-16 12:42:00,
2013-02-16 07:52:00,36.0,35.0,-100.00,SW,225,1.0,7.0,99,-99.99,,,-99.99,,2013-02-16 12:52:00,
2013-02-16 08:02:00,36.0,35.0,-100.00,WSW,250,1.0,5.0,99,-99.99,,,-99.99,,2013-02-16 13:02:00,
2013-02-16 08:12:00,36.0,35.0,-100.00,WNW,290,4.0,7.0,99,-99.99,,,-99.99,,2013-02-16 13:12:00,
2013-02-16 08:21:00,35.0,35.0,-100.00,WSW,245,2.0,6.0,99,-99.99,,,-99.99,,2013-02-16 13:21:00,
2013-02-16 08:32:00,35.0,35.0,-100.00,WSW,245,2.0,6.0,99,-99.99,,,-99.99,,2013-02-16 13:32:00,
2013-02-16 08:41:00,35.0,35.0,-100.00,NW,320,1.0,3.0,99,-99.99,,,-99.99,,2013-02-16 13:41:00,
2013-02-16 08:51:00,36.0,36.0,-100.00,WNW,290,2.0,6.0,99,-99.99,,,-99.99,,2013-02-16 13:51:00,
2013-02-16 09:01:00,36.0,36.0,-100.00,WNW,290,2.0,6.0,99,-99.99,,,-99.99,,2013-02-16 14:01:00,
2013-02-16 09:11:00,36.0,36.0,-100.00,NW,305,4.0,9.0,99,-99.99,,,-99.99,,2013-02-16 14:11:00,
2013-02-16 09:21:00,36.0,36.0,-100.00,NW,310,4.0,7.0,99,-99.99,,,-99.99,,2013-02-16 14:21:00,
2013-02-16 09:32:00,36.0,36.0,-100.00,NW,310,4.0,7.0,99,-99.99,,,-99.99,,2013-02-16 14:32:00,
2013-02-16 09:41:00,36.0,35.0,-100.00,WNW,300,7.0,12.0,99,-99.99,,,-99.99,,2013-02-16 14:41:00,
2013-02-16 09:52:00,36.0,35.0,-100.00,WNW,300,7.0,12.0,99,-99.99,,,-99.99,,2013-02-16 14:52:00,
2013-02-16 10:02:00,36.0,35.0,-100.00,NW,310,4.0,11.0,99,-99.99,,,-99.99,,2013-02-16 15:02:00,
2013-02-16 10:11:00,36.0,36.0,-100.00,NW,310,6.0,12.0,99,-99.99,,,-99.99,,2013-02-16 15:11:00,
2013-02-16 10:22:00,36.0,36.0,-100.00,NW,310,6.0,12.0,99,-99.99,,,-99.99,,2013-02-16 15:22:00,
2013-02-16 10:32:00,36.0,36.0,-100.00,NW,305,7.0,12.0,99,-99.99,,,-99.99,,2013-02-16 15:32:00,
2013-02-16 10:42:00,36.0,36.0,-100.00,NW,315,4.0,12.0,99,-99.99,,,-99.99,,2013-02-16 15:42:00,
2013-02-16 10:52:00,36.0,36.0,-100.00,NW,315,4.0,12.0,99,-99.99,,,-99.99,,2013-02-16 15:52:00,
2013-02-16 11:01:00,36.0,36.0,-100.00,NW,320,4.0,12.0,98,-99.99,,,-99.99,,2013-02-16 16:01:00,
2013-02-16 11:11:00,37.0,36.0,-100.00,North,5,5.0,10.0,98,-99.99,,,-99.99,,2013-02-16 16:11:00,
2013-02-16 11:21:00,37.0,36.0,-100.00,North,5,5.0,10.0,98,-99.99,,,-99.99,,2013-02-16 16:21:00,
2013-02-16 11:32:00,36.0,36.0,-100.00,NW,325,6.0,14.0,97,-99.99,,,-99.99,,2013-02-16 16:32:00,
2013-02-16 11:42:00,36.0,35.0,-100.00,WNW,290,2.0,9.0,96,-99.99,,,-99.99,,2013-02-16 16:42:00,
2013-02-16 11:52:00,36.0,35.0,-100.00,NW,325,6.0,12.0,96,-99.99,,,-99.99,,2013-02-16 16:52:00,
2013-02-16 12:01:00,36.0,35.0,-100.00,NW,325,6.0,12.0,96,-99.99,,,-99.99,,2013-02-16 17:01:00,
2013-02-16 12:11:00,36.0,35.0,-100.00,NNW,335,2.0,11.0,95,-99.99,,,-99.99,,2013-02-16 17:11:00,
2013-02-16 12:22:00,36.0,35.0,-100.00,NNW,335,2.0,11.0,95,-99.99,,,-99.99,,2013-02-16 17:22:00,
2013-02-16 12:32:00,37.0,35.0,-100.00,NW,305,2.0,7.0,95,-99.99,,,-99.99,,2013-02-16 17:32:00,
2013-02-16 12:42:00,36.0,34.0,-100.00,NW,325,4.0,12.0,92,-99.99,,,-99.99,,2013-02-16 17:42:00,
2013-02-16 12:52:00,37.0,34.0,-100.00,North,350,3.0,9.0,87,-99.99,,,-99.99,,2013-02-16 17:52:00,
2013-02-16 13:02:00,37.0,34.0,-100.00,North,350,3.0,9.0,87,-99.99,,,-99.99,,2013-02-16 18:02:00,
2013-02-16 13:11:00,37.0,32.0,-100.00,NW,325,4.0,10.0,82,-99.99,,,-99.99,,2013-02-16 18:11:00,
2013-02-16 13:21:00,37.0,32.0,-100.00,WNW,300,4.0,9.0,81,-99.99,,,-99.99,,2013-02-16 18:21:00,
2013-02-16 13:33:00,37.0,32.0,-100.00,WNW,300,4.0,9.0,81,-99.99,,,-99.99,,2013-02-16 18:33:00,
2013-02-16 13:42:00,37.0,30.0,-100.00,WNW,300,6.0,9.0,77,-99.99,,,-99.99,,2013-02-16 18:42:00,
2013-02-16 13:51:00,37.0,30.0,-100.00,WNW,300,6.0,9.0,77,-99.99,,,-99.99,,2013-02-16 18:51:00,
2013-02-16 14:02:00,37.0,31.0,-100.00,WNW,290,3.0,7.0,76,-99.99,,,-99.99,,2013-02-16 19:02:00,
2013-02-16 14:11:00,37.0,29.0,-100.00,West,280,4.0,10.0,74,-99.99,,,-99.99,,2013-02-16 19:11:00,
2013-02-16 14:21:00,37.0,29.0,-100.00,West,280,4.0,10.0,74,-99.99,,,-99.99,,2013-02-16 19:21:00,
2013-02-16 14:32:00,37.0,28.0,-100.00,WNW,285,4.0,9.0,71,-99.99,,,-99.99,,2013-02-16 19:32:00,
2013-02-16 14:42:00,37.0,29.0,-100.00,WNW,285,4.0,11.0,72,-99.99,,,-99.99,,2013-02-16 19:42:00,
2013-02-16 14:52:00,37.0,29.0,-100.00,WNW,285,4.0,11.0,72,-99.99,,,-99.99,,2013-02-16 19:52:00,
2013-02-16 15:01:00,37.0,29.0,-100.00,WNW,300,6.0,13.0,72,-99.99,,,-99.99,,2013-02-16 20:01:00,
2013-02-16 15:11:00,37.0,28.0,-100.00,WNW,290,5.0,14.0,69,-99.99,,,-99.99,,2013-02-16 20:11:00,
2013-02-16 15:21:00,37.0,27.0,-100.00,NW,315,4.0,14.0,68,-99.99,,,-99.99,,2013-02-16 20:21:00,
2013-02-16 15:32:00,37.0,27.0,-100.00,NW,315,4.0,14.0,68,-99.99,,,-99.99,,2013-02-16 20:32:00,
2013-02-16 15:42:00,37.0,27.0,-100.00,WNW,300,4.0,12.0,68,-99.99,,,-99.99,,2013-02-16 20:42:00,
2013-02-16 15:52:00,37.0,27.0,-100.00,WNW,300,4.0,12.0,68,-99.99,,,-99.99,,2013-02-16 20:52:00,
2013-02-16 16:02:00,36.0,26.0,-100.00,NW,305,9.0,15.0,65,-99.99,,,-99.99,,2013-02-16 21:02:00,
2013-02-16 16:11:00,36.0,25.0,-100.00,WNW,290,7.0,15.0,64,-99.99,,,-99.99,,2013-02-16 21:11:00,
2013-02-16 16:21:00,36.0,25.0,-100.00,WNW,290,7.0,15.0,64,-99.99,,,-99.99,,2013-02-16 21:21:00,
2013-02-16 16:32:00,36.0,25.0,-100.00,WNW,300,5.0,12.0,64,-99.99,,,-99.99,,2013-02-16 21:32:00,
2013-02-16 16:42:00,36.0,25.0,-100.00,WNW,300,5.0,12.0,64,-99.99,,,-99.99,,2013-02-16 21:42:00,
2013-02-16 16:52:00,36.0,25.0,-100.00,WNW,300,5.0,12.0,64,-99.99,,,-99.99,,2013-02-16 21:52:00,
2013-02-16 17:01:00,36.0,25.0,-100.00,NW,305,4.0,11.0,63,-99.99,,,-99.99,,2013-02-16 22:01:00,
2013-02-16 17:11:00,36.0,25.0,-100.00,WNW,300,4.0,13.0,63,-99.99,,,-99.99,,2013-02-16 22:11:00,
2013-02-16 17:21:00,36.0,25.0,-100.00,WNW,285,4.0,9.0,63,-99.99,,,-99.99,,2013-02-16 22:21:00,
2013-02-16 17:32:00,36.0,25.0,-100.00,WNW,285,4.0,9.0,63,-99.99,,,-99.99,,2013-02-16 22:32:00,
2013-02-16 17:42:00,36.0,25.0,-100.00,WNW,290,4.0,7.0,64,-99.99,,,-99.99,,2013-02-16 22:42:00,
2013-02-16 17:51:00,35.0,24.0,-100.00,NW,310,4.0,9.0,63,-99.99,,,-99.99,,2013-02-16 22:51:00,
2013-02-16 18:02:00,35.0,24.0,-100.00,NW,310,4.0,9.0,63,-99.99,,,-99.99,,2013-02-16 23:02:00,
2013-02-16 18:11:00,35.0,24.0,-100.00,WNW,300,6.0,9.0,63,-99.99,,,-99.99,,2013-02-16 23:11:00,
2013-02-16 18:21:00,35.0,24.0,-100.00,WNW,300,6.0,9.0,63,-99.99,,,-99.99,,2013-02-16 23:21:00,
2013-02-16 18:32:00,35.0,23.0,-100.00,WNW,295,5.0,11.0,60,-99.99,,,-99.99,,2013-02-16 23:32:00,
2013-02-16 18:42:00,35.0,22.0,-100.00,WNW,285,4.0,9.0,60,-99.99,,,-99.99,,2013-02-16 23:42:00,
2013-02-16 18:52:00,35.0,22.0,-100.00,WNW,300,5.0,11.0,60,-99.99,,,-99.99,,2013-02-16 23:52:00,
2013-02-16 19:02:00,35.0,22.0,-100.00,WNW,300,5.0,11.0,60,-99.99,,,-99.99,,2013-02-17 00:02:00,
2013-02-16 19:12:00,35.0,22.0,-100.00,WNW,295,5.0,12.0,60,-99.99,,,-99.99,,2013-02-17 00:12:00,
2013-02-16 19:22:00,35.0,22.0,-100.00,WNW,290,6.0,12.0,60,-99.99,,,-99.99,,2013-02-17 00:22:00,
2013-02-16 19:32:00,35.0,22.0,-100.00,WNW,290,6.0,12.0,60,-99.99,,,-99.99,,2013-02-17 00:32:00,
2013-02-16 19:42:00,35.0,22.0,-100.00,WNW,285,4.0,13.0,60,-99.99,,,-99.99,,2013-02-17 00:42:00,
2013-02-16 19:52:00,35.0,22.0,-100.00,WNW,285,4.0,13.0,60,-99.99,,,-99.99,,2013-02-17 00:52:00,
2013-02-16 20:01:00,35.0,22.0,-100.00,West,265,4.0,9.0,61,-99.99,,,-99.99,,2013-02-17 01:01:00,
2013-02-16 20:11:00,34.0,22.0,-100.00,WNW,285,3.0,9.0,61,-99.99,,,-99.99,,2013-02-17 01:11:00,
2013-02-16 20:21:00,34.0,22.0,-100.00,WNW,285,3.0,9.0,61,-99.99,,,-99.99,,2013-02-17 01:21:00,
2013-02-16 20:32:00,34.0,22.0,-100.00,NW,310,4.0,7.0,62,-99.99,,,-99.99,,2013-02-17 01:32:00,
2013-02-16 20:41:00,34.0,23.0,-100.00,WNW,300,6.0,12.0,63,-99.99,,,-99.99,,2013-02-17 01:41:00,
2013-02-16 20:52:00,34.0,23.0,-100.00,WNW,300,6.0,12.0,63,-99.99,,,-99.99,,2013-02-17 01:52:00,
2013-02-16 21:01:00,34.0,23.0,-100.00,WNW,290,6.0,12.0,63,-99.99,,,-99.99,,2013-02-17 02:01:00,
2013-02-16 21:11:00,34.0,23.0,-100.00,West,275,6.0,12.0,63,-99.99,,,-99.99,,2013-02-17 02:11:00,
2013-02-16 21:21:00,34.0,23.0,-100.00,West,275,6.0,12.0,63,-99.99,,,-99.99,,2013-02-17 02:21:00,
2013-02-16 21:32:00,34.0,22.0,-100.00,WNW,285,6.0,10.0,61,-99.99,,,-99.99,,2013-02-17 02:32:00,
2013-02-16 21:42:00,34.0,22.0,-100.00,WNW,300,4.0,10.0,61,-99.99,,,-99.99,,2013-02-17 02:42:00,
2013-02-16 21:52:00,34.0,22.0,-100.00,WNW,300,4.0,10.0,61,-99.99,,,-99.99,,2013-02-17 02:52:00,
2013-02-16 22:02:00,33.0,20.0,-100.00,West,270,6.0,11.0,58,-99.99,,,-99.99,,2013-02-17 03:02:00,
2013-02-16 22:11:00,33.0,20.0,-100.00,WNW,285,4.0,12.0,57,-99.99,,,-99.99,,2013-02-17 03:11:00,
2013-02-16 22:21:00,33.0,20.0,-100.00,WNW,285,4.0,12.0,57,-99.99,,,-99.99,,2013-02-17 03:21:00,
2013-02-16 22:32:00,33.0,18.0,-100.00,West,275,4.0,9.0,54,-99.99,,,-99.99,,2013-02-17 03:32:00,
2013-02-16 22:42:00,33.0,18.0,-100.00,West,270,2.0,7.0,54,-99.99,,,-99.99,,2013-02-17 03:42:00,
2013-02-16 22:51:00,33.0,18.0,-100.00,West,270,2.0,7.0,54,-99.99,,,-99.99,,2013-02-17 03:51:00,
2013-02-16 23:01:00,33.0,17.0,-100.00,WSW,255,3.0,8.0,52,-99.99,,,-99.99,,2013-02-17 04:01:00,
2013-02-16 23:11:00,33.0,17.0,-100.00,WNW,295,6.0,11.0,51,-99.99,,,-99.99,,2013-02-17 04:11:00,
2013-02-16 23:21:00,33.0,17.0,-100.00,WNW,295,6.0,11.0,51,-99.99,,,-99.99,,2013-02-17 04:21:00,
2013-02-16 23:32:00,33.0,17.0,-100.00,West,265,6.0,11.0,51,-99.99,,,-99.99,,2013-02-17 04:32:00,
2013-02-16 23:41:00,33.0,15.0,-100.00,West,275,9.0,14.0,48,-99.99,,,-99.99,,2013-02-17 04:41:00,
2013-02-16 23:51:00,33.0,14.0,-100.00,West,270,9.0,17.0,46,-99.99,,,-99.99,,2013-02-17 04:51:00,